Location: Kalberh�ni
(46.4610°N, 7.2453°E)
Time: 06:07:55
(UTC+00:00)

Cosmos 2333 Rocket - Pass Details

Date: 30 October 2021
Orbit: 837 x 865 km, 70.8° (Epoch: 05 December)

Event Time Altitude Azimuth Distance (km) Brightness Sun altitude
Rises 17:06:52 0° 182° (S) 3,385 5.5 -8.8°
Reaches altitude 10° 17:09:25 10° 175° (S) 2,458 4.7 -9.2°
Maximum altitude 17:14:39 40° 107° (ESE) 1,225 2.7 -10.1°
Drops below altitude 10° 17:19:57 10° 40° (NE) 2,492 4.2 -11.0°
Enters shadow 17:21:54 - 34° (NE) 3,202 4.8 -11.3°
